Dewpoint
46 47 49 50 53 54 56 55 54 53 53 53 53 53 53 56 57 56 50 51 53 54 54 51 48 44 42 42 40 40 37 32 31 28 26 24 23 29 30 29 29 31 31 42 53
42 42 45 47 49 51 54 56 54 54 53 53 52 53 53 55 53 51 51 52 54 54 50 47 44 43 40 40 39 41 39 37 33 28 27 26 26 27 29 29 30 30 36 42 46
40 40 40 43 46 48 51 54 56 54 53 53 52 53 54 53 49 47 52 54 56 56 52 47 44 41 40 38 38 38 37 33 31 29 35 35 34 30 32 30 31 29 32 38 43
41 40 40 41 42 45 48 51 54 56 54 53 52 53 54 50 39 52 57 55 56 57 53 48 42 39 39 37 37 35 35 35 35 34 36 36 36 35 32 33 34 34 35 38 39
42 41 40 40 41 43 47 49 52 55 55 53 52 53 49 45 43 54 54 54 55 57 53 50 41 39 36 34 36 35 35 34 35 35 35 38 38 37 36 35 36 35 35 37 40
42 41 42 40 41 44 45 48 49 54 56 53 52 52 47 36 40 45 44 44 47 51 53 51 42 41 38 35 33 34 34 35 35 33 35 34 35 36 34 34 35 35 35 35 37
42 42 41 41 41 43 45 47 48 51 56 53 52 50 43 40 38 40 42 42 47 47 51 52 48 43 41 38 40 37 37 37 36 35 35 35 34 34 35 35 33 32 32 33 34
43 43 41 41 41 42 45 46 47 50 55 54 52 46 40 42 43 41 39 41 46 50 48 52 50 45 43 42 39 37 37 35 33 34 34 34 31 32 33 34 33 33 32 32 32
43 43 42 43 42 42 45 46 47 49 53 54 49 46 38 42 38 40 38 40 44 49 50 50 48 44 43 40 36 34 31 31 31 33 31 33 31 33 33 33 33 32 32 32 32
42 43 43 43 43 43 45 46 47 48 53 51 46 42 39 38 38 37 38 43 42 43 48 48 44 41 40 38 30 30 31 31 29 31 31 31 31 32 32 31 31 33 34 33 33
43 43 43 41 44 44 44 44 44 44 49 42 41 36 36 39 40 37 39 42 42 42 39 44 39 37 36 36 35 35 30 27 28 28 27 27 27 28 28 28 28 30 30 31 32
43 42 40 43 44 45 44 39 39 45 40 44 42 38 39 39 36 37 40 40 39 39 36 34 32 33 33 34 34 29 27 27 27 27 26 26 26 27 27 26 26 26 27 28 29
40 39 41 44 45 42 41 38 42 44 39 40 41 38 39 38 36 37 39 37 38 35 35 32 31 33 32 30 29 29 28 27 26 27 27 26 24 23 24 25 26 26 26 26 27
39 43 44 44 43 40 38 43 47 45 31 36 39 38 40 38 35 38 38 36 35 35 33 32 32 29 28 29 29 27 28 27 26 26 23 26 22 22 20 19 20 21 22 25 26
42 43 44 45 42 38 40 45 47 44 21 37 39 40 39 35 36 36 38 34 31 31 32 31 30 30 29 28 29 27 29 28 27 26 25 25 23 21 20 19 19 20 21 22 23
42 44 44 44 46 41 41 44 42 28 21 33 38 36 36 35 36 36 36 37 35 30 30 30 31 31 30 29 30 30 28 27 28 26 23 23 22 17 15 17 19 19 21 22 22
42 45 45 45 40 44 44 39 26 22 34 31 33 35 33 32 35 34 35 34 31 28 28 30 30 31 31 29 30 29 28 23 23 22 16 17 21 18 17 19 20 20 20 21 22
44 45 45 43 42 44 40 33 23 31 32 30 34 33 29 32 33 33 34 32 32 29 29 26 25 30 31 30 28 29 27 23 17 18 18 19 17 17 18 20 19 20 20 21 22
46 44 43 44 44 44 37 23 27 31 29 33 33 31 30 30 32 32 31 29 29 31 27 27 26 29 32 31 30 27 26 27 24 22 20 18 16 17 18 17 18 17 19 20 23
45 41 42 45 43 40 32 27 31 36 30 30 27 29 26 28 28 30 30 30 29 30 30 30 25 28 31 30 29 28 29 26 27 18 15 16 16 15 17 17 17 18 24 27 34
41 36 43 45 42 37 27 28 35 37 31 32 27 26 25 28 28 27 26 28 29 29 30 28 27 26 30 28 27 28 27 27 27 27 20 17 16 19 20 19 20 21 29 31 35
38 32 42 43 33 34 33 36 37 36 33 29 27 26 25 26 27 26 27 27 29 30 28 28 26 25 26 27 29 28 27 26 23 20 24 24 22 24 23 22 22 22 31 33 33
36 36 42 43 30 32 35 36 37 35 33 31 29 28 27 28 26 27 28 28 30 29 28 29 26 23 27 26 25 25 26 27 27 29 25 23 20 22 24 25 25 25 25 26 28
38 30 36 39 39 35 34 34 34 37 34 32 30 30 27 29 28 28 30 30 30 31 32 29 28 26 24 28 30 28 29 27 28 27 25 25 24 26 27 28 31 32 28 28 29
39 35 37 33 35 36 37 35 32 32 34 33 31 30 28 27 29 28 29 32 31 33 31 31 28 28 28 27 28 29 29 30 31 32 28 28 29 32 35 36 36 36 31 29 29
38 37 39 34 35 34 35 36 33 32 33 31 30 31 30 29 30 29 29 29 30 32 30 32 29 29 27 28 28 27 28 29 32 36 36 35 34 37 37 37 34 35 37 36 33
41 41 40 33 31 31 32 32 31 33 35 33 32 31 32 34 35 36 35 32 32 31 30 33 32 28 24 26 27 28 30 35 36 37 37 32 36 38 38 39 40 40 40 39 39
Wind_Speed
21 22 22 22 23 22 19 16 13 12 12 11 9 10 11 11 13 9 18 12 20 9 3 10 10 12 12 13 17 12 10 18 23 21 19 19 13 6 3 12 10 4 8 10 11
21 21 21 22 21 22 22 18 15 14 12 11 10 9 10 9 11 16 14 14 6 8 8 10 11 14 14 13 9 10 14 14 15 20 19 22 10 5 6 12 14 11 11 12 6
21 20 21 20 22 21 22 22 17 16 13 10 10 8 8 9 9 10 24 19 10 9 12 15 13 13 14 15 17 10 20 13 18 22 8 13 16 7 9 10 13 15 12 14 12
21 22 21 22 20 21 21 21 21 18 14 11 10 7 5 9 6 4 7 27 15 11 12 14 15 10 11 18 16 23 17 19 21 20 8 9 12 16 13 14 17 18 15 5 11
24 24 21 23 22 22 22 21 22 19 15 12 10 7 3 7 9 8 8 7 8 14 16 16 15 13 14 12 17 18 22 16 13 15 11 10 14 17 21 15 18 18 20 11 5
25 24 23 22 22 22 23 21 21 21 15 13 11 7 5 13 0 8 6 8 11 16 18 16 7 9 8 16 13 6 11 15 19 11 12 17 18 19 13 19 22 23 21 18 14
26 26 25 23 22 21 23 22 20 20 16 15 11 9 11 13 2 2 5 7 7 16 14 12 3 2 0 4 11 7 12 16 19 15 14 7 20 25 26 26 25 24 23 23 23
25 25 26 23 24 21 21 21 19 21 17 17 13 12 8 3 4 5 6 8 4 5 12 11 4 2 1 5 2 6 14 14 13 26 19 18 24 16 20 27 29 27 24 23 23
22 24 24 23 22 20 21 20 19 20 18 19 10 13 8 7 7 12 9 11 9 9 3 11 9 3 7 5 3 9 11 18 13 7 5 16 9 16 13 7 11 15 17 24 24
23 22 22 22 20 19 20 17 19 16 8 14 11 10 11 11 10 14 11 8 12 11 8 7 4 6 9 12 10 9 15 14 14 8 7 13 21 20 21 22 20 17 18 18 16
22 21 23 22 21 18 15 6 4 8 12 7 11 3 18 15 13 12 14 14 11 12 9 13 7 11 17 15 18 17 13 13 17 13 13 16 24 23 23 24 27 25 22 23 25
21 22 19 17 16 20 13 4 6 6 7 16 10 15 13 17 12 15 15 11 10 11 9 5 11 14 14 15 14 12 11 15 15 14 15 17 30 27 31 33 30 28 26 25 23
22 20 20 19 17 16 14 15 3 7 5 14 13 16 17 9 9 20 19 12 14 13 13 10 2 16 14 10 6 9 10 12 15 17 17 23 27 21 14 26 29 31 31 27 26
21 19 18 18 11 10 14 4 12 3 3 13 11 12 10 9 8 18 16 12 7 15 12 9 9 6 6 13 10 9 3 6 7 8 5 14 15 17 19 18 12 15 14 19 23
23 25 23 23 6 7 2 3 12 3 7 18 11 14 16 11 20 15 17 8 13 11 10 6 6 7 7 9 8 5 7 5 7 11 14 6 9 10 7 11 10 13 12 9 15
24 27 31 15 7 15 13 2 7 4 5 7 9 16 19 17 6 16 13 3 3 7 10 8 3 2 7 5 4 7 2 5 9 7 9 17 17 14 1 4 11 15 14 19 5
29 27 26 7 3 18 12 6 5 5 6 9 12 18 22 17 13 20 15 9 8 7 9 7 11 4 5 6 6 5 3 2 5 6 11 5 14 20 20 23 25 15 9 3 5
28 31 10 5 3 17 12 5 6 5 2 8 19 21 14 20 11 16 17 11 13 10 10 10 5 20 13 13 6 12 6 4 6 5 5 9 12 8 12 14 7 6 9 14 1
27 8 2 5 12 11 5 7 4 4 10 12 24 10 13 14 9 13 13 12 14 14 7 9 4 3 14 9 12 7 11 3 5 7 9 8 9 17 23 24 22 18 18 15 6
5 4 5 11 9 2 2 2 6 4 18 22 7 7 13 19 11 12 17 16 11 19 14 4 3 4 10 6 11 8 4 2 3 4 9 8 17 17 10 14 9 15 4 5 8
4 3 4 10 5 6 1 2 4 9 21 0 12 9 13 20 11 12 14 9 16 17 18 3 2 3 6 11 14 10 10 6 3 6 6 11 6 4 11 13 15 13 1 4 4
4 6 3 5 4 4 1 2 1 3 1 2 8 14 17 19 10 12 15 6 14 12 16 8 4 6 14 9 17 13 12 15 7 6 9 12 25 33 25 8 13 20 8 11 13
4 4 4 3 1 2 3 5 4 3 2 2 5 8 20 14 11 6 13 6 6 10 15 11 5 3 1 6 14 9 12 18 19 16 24 20 18 7 24 33 27 21 18 20 7
3 3 2 3 4 3 3 5 3 8 13 11 11 11 17 10 5 8 8 3 6 5 8 13 4 7 4 2 2 7 9 15 17 15 23 36 47 37 34 31 26 22 22 22 17
1 2 2 1 5 7 3 6 4 4 5 4 4 10 13 5 8 6 12 10 6 7 4 2 4 8 14 17 16 19 22 24 24 29 26 38 37 41 34 35 30 23 19 13 12
4 3 4 2 4 12 2 1 2 8 9 8 14 9 7 7 7 8 8 5 6 10 8 5 4 6 14 19 22 27 24 24 21 23 23 26 35 28 24 23 16 13 16 13 9
6 5 4 1 5 2 3 4 5 5 9 11 8 8 11 7 6 6 6 3 5 9 12 7 4 2 6 12 16 10 8 9 12 16 16 17 25 29 24 14 8 5 9 11 12
Wind_Direction
342 344 343 338 344 339 330 259 260 267 267 273 278 288 292 303 312 192 221 232 228 199 178 249 211 232 237 244 241 221 240 233 245 252 262 275 288 137 174 278 277 196 253 112 120
338 336 334 335 329 336 334 319 253 257 260 266 272 281 290 306 288 241 225 229 220 178 203 238 211 213 215 219 219 221 222 236 244 254 256 263 271 223 220 230 262 257 137 123 147
335 333 329 324 328 323 330 330 294 246 247 253 263 271 286 297 273 250 217 220 201 187 226 222 249 206 224 229 215 220 244 229 245 270 338 326 314 210 279 230 225 241 222 163 176
328 327 331 327 317 318 318 322 316 255 240 236 246 256 277 262 231 86 25 200 208 211 229 243 226 221 233 236 233 242 235 238 264 279 332 297 302 296 267 253 276 296 312 148 170
322 322 325 323 320 313 316 317 321 309 230 227 229 241 220 218 260 123 110 147 211 215 221 229 204 205 224 228 239 230 247 252 263 278 298 286 281 281 285 294 275 280 282 285 238
317 319 320 318 315 314 309 309 309 320 224 216 217 219 232 229 27 140 161 181 213 207 219 224 212 236 250 247 224 235 265 266 268 266 258 267 261 260 261 262 272 274 274 274 255
314 315 316 315 314 311 310 307 304 303 239 205 208 211 239 230 98 157 214 220 212 207 211 216 333 218 107 309 332 311 300 280 261 253 243 267 259 252 252 251 256 250 247 252 257
316 312 312 314 309 305 307 302 300 304 276 197 200 220 242 142 196 187 214 206 237 257 220 188 167 309 28 53 241 245 250 261 255 224 229 215 257 266 275 233 236 246 253 252 242
311 308 313 312 307 304 306 295 296 294 297 182 189 225 236 134 183 201 206 184 183 157 239 171 169 172 172 174 227 236 263 229 256 188 170 206 266 263 275 279 279 243 258 238 242
316 313 310 312 309 307 305 296 285 281 258 178 229 192 216 200 163 172 198 161 161 167 141 160 134 176 211 187 197 211 213 253 267 167 190 236 252 265 280 285 270 256 259 267 245
321 313 312 305 309 317 321 324 215 223 196 175 174 252 150 119 135 166 179 153 160 189 180 195 183 189 198 216 239 284 300 301 307 323 317 278 273 266 265 255 254 247 250 247 250
324 316 315 322 322 317 308 261 263 20 249 218 228 216 138 152 139 165 176 147 177 186 179 167 242 222 229 215 231 269 286 283 294 297 330 304 283 277 261 256 248 246 244 243 248
318 322 325 323 324 303 245 244 87 16 277 203 210 179 157 186 145 164 184 145 173 192 170 185 184 217 250 252 240 257 258 280 294 309 295 279 280 257 259 241 242 240 241 241 240
323 319 316 333 300 282 254 295 113 171 255 159 188 171 166 192 134 161 193 162 175 197 193 238 238 160 207 234 217 243 341 326 293 314 274 8 294 272 282 273 253 226 226 228 236
322 317 310 296 200 276 29 47 136 238 185 150 157 146 165 178 125 169 203 189 183 188 178 218 223 194 225 221 222 236 59 351 306 300 318 267 237 271 203 245 253 265 220 236 232
325 321 321 305 236 217 253 202 73 184 220 131 144 165 155 154 102 149 179 70 344 220 189 217 65 199 215 227 260 86 350 236 254 258 257 228 208 283 269 46 21 344 232 217 104
324 322 317 270 233 184 138 109 193 226 167 133 152 156 160 156 132 152 166 175 157 145 206 243 241 185 264 195 163 212 117 255 224 216 242 202 198 244 289 287 290 280 310 338 112
327 322 315 198 249 142 122 137 253 110 172 167 136 147 162 152 150 166 168 177 224 223 135 193 219 198 185 216 178 198 180 227 272 248 293 318 248 238 247 256 200 224 257 259 82
323 310 359 166 131 139 145 174 301 105 135 135 134 132 136 176 141 157 176 193 202 215 199 176 249 147 153 191 220 141 206 212 298 293 270 234 270 289 271 269 272 270 243 210 195
320 314 30 134 121 85 197 133 318 253 124 142 101 163 160 183 147 168 176 199 198 200 221 12 174 180 156 194 210 194 167 149 211 267 265 249 258 253 327 348 342 350 49 138 110
60 66 11 142 74 56 251 103 346 318 147 308 144 143 153 165 154 176 181 158 190 189 203 174 221 117 103 212 197 193 233 237 340 240 261 298 247 38 344 345 336 324 266 68 37
21 80 258 189 56 237 159 91 12 262 199 70 138 144 153 161 152 178 189 259 191 163 191 175 149 227 222 242 208 211 203 210 217 231 229 278 280 258 266 282 333 308 248 230 224
42 68 237 30 221 103 24 147 158 279 29 68 91 136 151 153 154 194 118 77 106 183 162 166 196 237 266 209 232 228 232 223 230 272 253 265 257 302 304 303 298 275 289 275 282
99 90 327 281 254 121 112 128 104 355 49 70 110 118 152 81 101 126 101 116 161 160 69 157 183 231 228 127 51 249 259 247 243 258 265 251 275 280 291 300 303 309 281 256 243
40 129 215 343 103 100 338 104 108 79 65 41 87 113 139 126 102 135 120 125 168 135 141 154 237 266 271 281 286 276 268 260 252 251 257 279 281 288 294 290 289 280 286 270 265
31 14 316 322 131 108 33 127 100 72 9 67 104 83 43 107 48 156 147 167 165 169 186 194 266 321 296 272 257 257 256 256 265 266 267 273 279 291 292 288 291 18 17 10 1
341 314 289 36 202 175 132 196 93 114 30 40 108 105 77 53 68 75 56 77 92 160 191 171 198 326 266 317 299 280 248 239 249 259 266 281 293 309 316 305 318 357 315 310 310